Theta_e
331 330 330 330 330 330 330 330 330 329 327 325 324 325 328 329 322 315 320 323 323 325 326 325 325 326 327 328 328 329 329 329 328 327 327 329 330 331 331 331 328 321 317 317 314 312 311 311 310 310 310 309 309 309 308 308 307 307 306 307 307 307 306 307 307 306 307 306 306 306 306 306 306 306 307 307 308 308 308 309 309 309 309 308 308
330 330 330 330 330 330 329 329 330 330 328 327 326 326 327 330 324 317 321 324 323 325 326 326 325 326 327 328 328 327 328 327 327 327 327 327 329 331 331 332 329 322 317 317 315 313 311 310 309 310 310 309 309 308 308 307 307 306 306 306 306 306 306 306 306 306 306 306 306 306 306 306 306 306 306 306 307 307 308 308 308 309 309 308 308
330 329 330 330 330 329 329 328 329 330 329 327 328 327 327 329 329 323 322 325 325 324 325 326 325 325 325 327 327 326 326 327 327 327 327 327 330 332 332 331 330 325 321 318 316 315 313 310 309 309 309 308 308 307 307 307 306 305 305 305 306 306 306 306 305 306 306 306 306 306 306 306 306 306 306 306 306 307 307 308 308 308 309 308 308
329 329 330 331 330 328 328 327 328 329 329 328 328 328 328 328 330 328 325 325 326 326 325 326 325 325 325 325 326 325 325 326 326 326 327 329 330 332 332 331 329 327 325 322 318 316 315 312 310 309 308 307 307 306 306 306 305 305 305 305 305 305 306 306 305 305 305 306 306 305 306 305 305 306 306 306 306 307 307 308 308 308 308 309 309
329 330 330 331 330 328 328 328 328 329 329 329 328 328 329 329 329 329 328 327 327 327 326 326 326 325 325 325 326 325 325 325 325 325 326 328 329 330 331 330 329 327 327 326 322 318 316 313 310 308 307 307 306 306 306 305 305 305 305 306 305 305 305 305 305 305 305 305 306 305 305 305 305 305 306 306 306 306 307 307 308 308 308 308 309
330 330 329 330 330 329 329 328 328 329 329 329 329 329 329 330 330 329 329 329 329 328 327 327 327 327 326 326 326 326 326 325 326 326 326 326 328 329 330 330 329 328 327 327 326 322 318 314 312 310 309 309 308 307 307 307 306 305 305 306 305 305 304 304 304 305 305 305 305 305 305 305 305 305 306 306 306 307 307 307 308 308 308 308 308
330 330 329 329 330 329 329 328 328 329 330 330 330 330 329 329 330 329 329 329 329 329 328 327 327 327 327 327 327 326 326 326 326 326 326 326 327 328 330 331 330 329 328 327 328 326 321 317 315 314 313 313 313 312 310 310 309 308 308 309 307 305 305 304 304 304 304 304 304 305 305 305 305 305 305 305 306 307 307 307 307 308 308 308 308
329 329 330 330 329 329 328 328 329 329 330 330 330 330 330 329 329 329 328 328 328 328 328 329 328 327 327 327 327 326 326 325 325 326 326 326 326 327 329 330 331 330 329 328 328 328 326 323 318 317 316 316 316 315 314 314 313 313 312 312 310 309 309 307 306 306 305 305 306 306 306 306 306 306 306 306 306 306 307 307 307 308 308 308 308
329 329 329 329 329 329 328 328 328 328 329 329 330 330 329 329 329 329 329 327 326 326 327 328 329 328 328 327 327 326 325 325 325 325 326 326 325 326 327 329 330 330 330 329 328 328 328 326 322 321 320 319 319 319 318 317 315 314 315 314 313 312 312 311 310 309 309 309 309 309 309 309 308 308 308 307 307 307 307 307 308 308 308 308 308
329 328 328 329 329 328 328 327 327 327 328 329 329 329 329 329 329 329 329 327 326 325 326 327 329 328 327 327 327 326 325 324 325 325 325 325 324 325 326 327 328 329 330 330 329 328 328 328 326 325 324 322 323 323 322 322 321 319 317 316 316 314 313 313 313 313 312 312 312 312 312 311 311 310 309 309 308 308 308 307 307 308 308 308 308
327 328 328 328 328 328 328 328 328 328 328 328 328 329 329 329 329 329 329 328 327 326 326 327 329 328 327 327 326 325 325 324 324 324 325 325 325 324 325 325 326 327 329 329 330 329 328 328 327 327 327 325 326 326 325 324 325 324 321 319 318 317 316 316 315 315 314 314 315 314 314 313 312 311 311 310 310 309 308 308 308 308 308 308 308
325 326 327 327 327 327 327 327 327 327 327 328 328 328 328 329 329 329 329 328 328 328 328 328 329 329 328 327 326 325 324 323 323 324 325 325 325 325 325 325 325 326 327 328 329 329 328 328 328 328 328 327 327 328 327 325 325 325 325 324 322 319 318 318 317 317 317 317 317 316 315 315 314 313 312 311 311 310 309 309 308 308 308 308 308
324 325 325 325 325 325 325 325 325 325 326 326 327 328 328 329 329 329 329 329 329 329 329 329 329 328 328 327 326 325 324 323 322 324 324 325 326 326 326 326 326 326 326 327 328 329 329 328 328 329 328 329 328 329 328 328 325 324 325 327 327 323 321 320 319 319 319 320 320 318 317 317 316 315 315 313 312 312 311 310 309 308 308 308 308
323 324 323 323 323 322 321 320 320 320 321 322 324 326 326 327 328 328 329 328 328 329 328 329 329 328 327 326 326 326 325 323 321 323 325 326 327 327 327 327 326 326 326 327 327 327 328 328 328 328 329 329 328 328 328 328 327 325 324 325 327 327 325 324 322 321 321 321 321 320 320 320 319 319 319 318 316 314 313 312 312 310 309 308 308
320 321 322 321 319 317 316 315 315 316 317 319 321 323 324 326 327 327 328 328 328 328 328 328 329 329 327 326 326 326 326 324 322 323 324 325 325 326 326 326 325 324 323 326 326 326 326 327 328 328 328 328 327 326 326 327 327 327 326 325 326 327 328 327 326 324 324 324 322 322 322 322 322 322 322 322 321 319 317 315 315 314 313 310 308
316 319 320 318 317 316 316 317 317 318 318 319 321 322 323 324 325 326 327 327 327 328 328 328 329 328 327 327 327 327 327 326 325 324 324 323 323 323 324 325 325 324 324 325 326 325 325 325 326 326 327 327 327 327 327 327 327 327 327 326 326 327 328 328 328 327 327 326 325 323 323 323 324 324 323 323 324 323 322 320 318 317 316 315 312
316 318 319 319 318 318 317 317 317 318 319 320 322 323 323 323 324 324 324 325 326 327 327 327 327 327 327 327 327 327 327 326 325 325 324 323 322 322 322 324 325 325 325 325 325 325 325 325 325 325 325 325 326 327 326 327 328 328 328 327 327 326 327 327 327 327 327 327 327 326 325 324 325 325 325 325 325 325 325 324 322 320 319 318 317
317 318 319 319 319 318 317 316 315 317 319 320 321 321 321 322 322 322 323 324 325 326 326 326 326 327 327 327 327 326 326 325 325 325 326 324 324 323 322 323 325 325 325 325 325 325 326 326 326 325 325 326 326 326 325 326 327 328 328 328 328 327 327 327 327 327 326 327 328 328 328 326 326 326 325 325 325 325 326 326 325 323 322 321 319
318 318 318 318 318 318 317 315 314 315 317 318 319 319 320 319 318 319 321 323 325 326 326 326 326 326 327 327 327 326 326 326 325 325 325 325 324 324 323 323 324 325 325 326 326 325 326 326 326 326 325 325 325 324 324 324 325 327 328 328 328 328 327 326 326 326 327 327 327 327 328 328 328 327 327 326 326 326 326 326 326 325 325 324 322
316 316 315 315 317 316 313 310 310 311 312 314 315 315 315 314 314 316 319 322 324 324 325 325 326 326 326 326 326 327 326 326 325 325 325 324 324 324 324 324 324 325 326 325 324 324 325 325 324 325 324 325 324 322 323 324 325 326 327 327 327 327 326 326 326 326 327 326 326 326 327 327 328 327 327 327 327 326 327 327 327 327 327 326 325
310 310 311 313 315 313 309 306 306 306 307 307 308 308 308 310 313 315 317 320 322 323 323 323 324 325 326 326 325 325 325 324 325 326 325 324 324 325 325 326 325 325 325 325 325 324 325 325 324 324 324 324 324 324 324 326 326 325 326 326 326 325 325 325 326 326 326 326 326 327 326 326 326 326 326 326 326 327 328 327 327 328 328 327 327
306 307 309 312 312 309 306 305 306 305 305 305 305 306 306 308 311 311 313 317 321 322 321 321 322 323 323 323 324 323 323 323 324 325 324 323 323 324 324 324 324 324 324 325 326 326 325 325 324 323 323 323 324 324 324 324 324 324 325 325 325 324 323 324 325 325 325 326 326 326 325 325 325 326 326 326 327 327 327 327 327 328 328 328 328
306 306 308 309 308 307 306 306 306 306 306 306 306 306 306 306 307 308 309 312 314 314 313 312 315 319 320 320 320 319 320 322 323 324 323 323 321 322 322 320 320 322 322 324 324 324 323 323 322 321 321 321 321 320 319 319 321 324 325 325 323 322 322 321 322 323 324 326 325 326 325 323 324 325 326 326 326 327 327 328 328 327 328 328 328
306 306 306 307 306 306 306 306 306 306 306 307 306 306 306 306 306 307 307 307 307 307 306 305 308 313 314 315 315 315 317 320 322 322 321 321 320 319 318 318 319 319 318 319 319 319 319 318 318 318 318 318 317 318 317 316 317 321 324 324 322 321 319 319 321 324 324 324 323 324 323 322 322 324 324 325 326 327 327 327 327 326 327 329 329
306 306 306 306 306 306 306 306 306 306 306 306 307 306 306 306 306 306 306 306 306 305 305 306 306 308 308 310 310 312 314 316 317 317 316 316 316 317 316 316 317 317 315 315 316 315 316 316 317 317 318 318 319 318 318 316 315 317 319 320 319 317 317 319 322 324 324 323 322 323 322 321 321 321 322 322 324 325 325 325 325 325 326 327 328
306 306 306 306 306 306 306 306 306 306 306 306 306 306 306 306 306 306 306 306 305 305 305 305 305 305 305 306 306 307 308 309 309 309 307 308 309 312 315 315 315 315 314 314 313 313 313 313 315 317 319 319 319 320 319 318 317 317 317 317 316 317 318 321 324 324 323 323 323 323 322 321 320 320 319 319 319 320 320 320 321 322 323 324 325
306 306 306 306 306 306 306 307 306 306 306 306 306 305 305 305 305 305 305 305 305 305 304 304 304 304 303 303 303 303 304 304 304 303 304 304 304 307 311 314 314 313 313 313 313 312 311 310 311 314 317 319 320 320 321 321 321 320 319 318 319 320 321 324 324 324 324 323 322 322 321 320 320 319 318 317 317 316 316 315 315 316 318 319 320
306 306 306 306 306 306 306 306 306 306 306 305 305 305 305 305 305 304 305 304 304 304 304 304 303 303 303 303 303 302 302 303 302 302 303 303 303 304 307 311 314 313 312 312 312 311 309 308 308 309 311 314 317 319 320 321 322 322 322 322 322 323 323 324 324 323 323 322 321 320 320 319 319 318 316 315 314 314 313 311 310 310 311 313 314
307 307 307 307 307 307 306 306 306 306 306 306 306 305 305 305 305 304 304 304 304 304 303 303 303 303 303 302 303 303 302 302 302 302 302 302 303 303 304 307 311 313 312 309 308 309 308 307 307 307 306 307 310 312 315 319 320 321 322 322 322 322 322 322 322 322 321 320 319 318 317 316 315 313 311 309 308 308 308 307 307 307 307 308 309
307 307 307 307 307 307 307 307 307 307 306 306 306 306 305 305 305 305 305 305 305 305 304 304 304 303 303 303 303 303 303 304 303 303 303 303 302 302 302 303 306 310 312 310 307 306 306 306 306 306 305 305 305 305 307 310 313 315 316 318 318 319 319 319 319 318 318 317 315 313 312 310 309 308 306 305 305 305 306 306 307 307 307 308 308
308 308 308 309 309 309 309 310 309 309 308 308 307 307 306 306 306 306 306 306 306 306 306 306 306 305 305 305 304 304 304 305 305 304 304 304 303 303 303 303 304 307 310 309 307 305 305 305 305 305 305 305 305 304 304 305 305 306 307 308 310 311 311 311 311 311 310 310 309 307 306 306 306 306 306 306 306 306 306 307 307 308 308 308 309
311 312 312 312 312 312 313 313 314 313 312 311 310 309 308 307 307 306 306 306 306 306 306 307 307 307 307 306 306 306 306 306 306 306 306 305 305 305 305 305 305 306 307 307 306 306 305 306 305 305 306 306 306 306 305 305 305 305 305 305 305 305 305 305 305 305 304 304 304 304 304 304 305 306 306 306 307 306 307 307 307 307 307 308 308
315 316 316 317 316 316 317 317 317 317 316 315 314 313 312 311 310 308 307 307 307 307 307 307 307 307 307 307 306 306 306 306 306 306 306 306 306 307 307 307 306 306 306 306 306 305 305 305 305 305 305 306 306 307 307 307 307 307 306 306 305 305 304 304 304 304 304 304 304 304 304 304 305 305 306 306 307 307 307 307 306 306 306 306 307
317 318 318 319 318 318 318 318 318 318 318 317 316 316 315 315 315 314 312 311 310 309 309 308 308 308 307 307 306 306 306 306 306 306 306 306 306 306 306 306 307 306 306 306 306 305 305 304 305 305 305 305 306 306 307 307 308 308 307 306 306 305 305 304 304 303 303 304 304 304 305 305 305 306 306 306 306 307 306 307 307 307 307 307 307
318 318 319 319 319 318 317 318 318 319 318 318 317 317 317 317 317 317 316 315 315 314 314 312 311 310 309 309 308 308 307 307 306 306 306 306 306 306 306 306 306 306 306 306 306 306 306 306 306 305 305 305 305 306 306 306 306 307 307 307 306 306 305 305 304 304 303 303 303 303 304 304 305 305 305 306 306 306 307 307 307 307 308 308 307
319 319 319 318 318 318 318 318 318 318 319 318 318 317 317 318 318 318 318 318 318 318 317 316 315 314 312 312 311 310 310 309 309 308 308 306 306 306 306 307 307 308 308 309 309 309 309 310 309 309 308 308 307 306 305 305 305 305 306 307 307 306 306 306 305 305 305 304 304 303 303 302 302 302 303 303 304 304 305 305 305 306 306 306 306
319 318 318 318 317 317 318 319 319 319 319 318 318 317 317 317 318 318 319 319 319 319 319 319 318 317 316 314 313 313 313 313 313 312 311 309 308 308 308 309 310 311 312 312 312 312 312 312 312 311 311 310 310 308 307 307 306 306 306 307 307 307 307 307 306 306 306 306 305 304 304 303 302 301 301 301 301 301 301 302 302 303 303 303 303
316 316 317 317 316 317 318 318 318 318 318 318 317 317 317 317 317 317 318 318 318 319 319 319 318 318 318 317 316 315 315 315 315 315 314 312 311 312 312 312 312 313 313 313 312 312 311 311 311 311 311 311 311 310 309 308 308 307 307 307 308 308 308 308 307 307 307 306 306 305 304 304 303 302 302 301 301 301 300 300 300 300 300 300 300
315 317 317 316 316 317 318 318 318 317 317 317 317 317 317 317 316 317 318 319 318 318 319 318 317 317 317 317 317 317 316 316 316 316 316 315 315 315 315 314 314 313 313 313 312 311 311 311 310 310 309 310 310 310 309 309 308 308 308 308 308 308 308 308 308 307 307 306 306 305 305 304 303 302 302 301 301 301 301 301 300 300 300 299 300
317 318 317 317 317 317 317 318 318 317 317 316 317 317 318 319 318 319 319 319 319 319 319 318 316 315 316 317 317 317 317 317 316 316 316 316 315 314 314 315 314 313 313 313 312 311 311 311 310 309 309 309 308 308 308 308 308 309 308 308 308 308 308 308 307 307 307 306 306 305 305 304 304 303 302 301 301 300 300 300 300 300 300 300 300
316 316 317 317 318 317 317 318 318 317 317 317 318 319 319 319 319 319 319 319 319 320 320 319 317 316 317 317 318 318 318 317 317 316 316 315 315 314 314 314 313 313 313 313 312 311 311 311 310 309 309 308 308 307 306 306 307 308 308 308 308 307 307 307 307 306 306 305 305 305 305 304 304 304 303 302 301 300 300 300 300 300 300 300 300
317 317 317 318 318 318 318 318 318 317 317 317 317 318 318 318 319 320 320 320 320 320 319 319 319 318 318 319 319 319 318 318 317 317 316 315 315 315 314 313 312 312 311 312 312 312 311 311 310 309 309 308 307 307 306 305 305 306 307 307 307 307 306 306 306 306 305 304 304 304 305 304 303 304 304 303 301 300 299 299 299 299 299 299 300
317 316 316 316 317 317 317 317 316 316 316 315 315 314 315 316 317 318 319 319 319 320 320 320 319 319 319 319 319 319 319 318 318 317 316 316 315 315 314 314 313 311 311 311 311 311 311 311 310 309 309 308 308 307 306 305 305 305 306 306 306 306 305 304 304 304 303 302 301 302 304 303 302 302 303 302 301 300 299 299 299 299 299 299 299
313 313 313 314 315 316 316 315 315 315 315 314 314 313 313 314 314 315 315 316 316 317 317 318 318 318 318 318 318 318 318 319 318 318 317 316 315 314 314 313 313 312 311 311 310 311 311 311 310 309 309 308 307 306 305 305 305 305 305 305 305 305 304 302 301 301 301 299 299 300 301 301 300 300 300 300 299 299 299 298 299 298 298 298 298
311 311 311 312 312 313 313 313 313 314 313 313 313 313 313 313 313 314 314 314 314 314 313 313 313 313 313 313 314 315 316 317 318 318 318 317 316 315 314 313 313 312 311 310 310 310 310 309 309 309 308 307 306 305 305 305 305 305 304 304 304 303 302 300 299 299 298 297 296 297 298 299 298 298 299 299 298 298 298 298 298 298 298 298 298
309 309 309 309 309 309 309 309 309 309 309 309 310 310 311 311 312 313 314 314 314 314 313 312 311 311 311 311 311 312 313 315 316 317 317 317 316 314 313 313 313 311 310 310 310 310 309 309 308 307 306 305 305 304 304 304 304 303 303 303 303 302 300 297 296 296 296 296 295 295 296 297 297 297 297 298 298 298 298 298 298 297 297 297 297
306 306 306 305 305 305 304 304 304 304 303 304 304 304 305 306 307 309 311 312 312 312 312 311 312 311 311 310 310 310 311 313 315 316 316 316 315 314 313 313 312 311 310 310 309 309 309 308 307 306 304 304 304 304 304 303 303 302 301 300 299 298 296 295 295 295 295 295 295 294 295 296 296 296 296 297 297 297 297 297 297 297 297 297 297
303 303 304 304 304 303 303 302 302 302 301 301 302 302 302 302 303 304 306 308 309 309 310 311 312 312 312 311 310 311 312 313 314 315 315 314 313 313 313 312 311 311 310 309 308 308 308 306 305 304 303 303 304 303 303 303 301 300 299 297 296 294 294 294 294 294 295 295 295 294 294 295 295 295 295 296 296 297 297 297 297 297 296 296 296
305 305 305 305 304 304 304 303 303 302 302 301 301 302 303 302 302 303 304 305 307 309 310 311 312 312 312 312 311 311 312 313 313 313 313 313 312 311 311 311 310 309 308 308 308 307 306 304 304 303 303 303 303 303 302 301 300 298 296 294 294 293 293 294 294 294 294 294 294 294 294 294 294 294 294 295 295 296 296 296 296 296 296 296 296
306 306 306 305 305 304 304 303 303 303 302 301 301 302 302 302 302 303 303 304 307 308 310 310 311 312 312 312 311 311 311 312 313 312 311 311 310 310 310 309 309 308 307 307 307 305 304 304 303 303 302 302 302 301 300 298 296 295 294 293 293 293 293 293 293 293 294 293 294 293 293 293 293 293 293 293 294 295 295 295 295 295 295 296 296
305 305 305 305 305 305 304 304 303 303 303 302 302 302 302 302 302 302 302 303 304 307 308 310 311 311 311 311 310 310 310 310 310 310 310 309 309 309 308 308 308 307 307 306 305 304 303 303 302 302 302 301 301 299 297 295 294 293 293 293 293 293 293 293 292 292 292 292 292 292 292 292 292 292 292 292 293 294 294 294 294 294 294 294 294
Wind_Speed
8 9 9 7 7 7 7 6 6 6 6 4 3 4 4 4 4 6 9 10 11 10 9 9 9 9 8 8 8 9 9 9 7 6 5 5 3 1 0 1 2 3 3 2 3 2 2 3 4 5 7 7 7 7 6 6 6 6 5 5 4 3 3 2 2 2 1 2 3 3 4 5 5 5 6 6 6 6 7 7 7 8 9 9 10
8 9 9 8 7 7 7 7 7 8 7 5 4 4 5 5 4 5 9 10 12 11 9 9 9 9 8 8 8 8 9 9 8 7 6 6 4 2 2 2 2 2 3 3 3 2 2 2 4 5 6 7 7 7 7 7 6 5 5 5 5 4 4 3 3 3 2 2 1 2 3 3 3 4 4 5 5 5 6 6 6 6 7 8 9
9 8 7 7 7 7 7 7 8 8 7 6 5 4 5 6 5 6 9 10 11 12 10 9 9 9 8 7 7 8 9 9 8 7 7 7 5 3 3 2 2 1 2 2 2 2 2 3 3 4 4 5 6 7 7 7 6 6 5 5 5 5 5 5 4 4 3 3 2 2 2 2 2 2 3 4 4 4 5 5 5 5 6 6 7
8 8 7 7 6 6 7 7 7 7 7 6 6 6 6 8 8 8 9 10 11 11 11 11 10 10 10 8 8 8 8 8 7 6 6 6 5 5 3 2 2 1 1 1 2 2 2 2 2 3 3 4 5 6 6 7 6 7 6 4 4 4 5 6 5 5 4 4 3 3 2 1 1 1 2 2 3 3 4 4 4 4 5 5 6
8 7 6 6 6 7 7 6 6 6 6 6 6 6 7 9 9 9 9 10 11 11 11 11 11 11 11 10 8 8 7 7 6 5 6 6 5 5 5 4 3 2 1 1 1 1 2 1 1 1 2 3 4 4 5 5 6 6 7 5 4 4 5 6 6 6 5 5 4 4 3 2 1 1 0 1 2 2 3 3 3 3 4 4 4
6 6 6 7 7 7 6 6 6 7 7 6 6 6 7 8 9 10 10 10 11 12 12 12 12 11 11 10 9 8 8 7 7 6 6 5 5 6 6 5 4 3 1 0 1 1 1 1 2 1 0 1 1 2 2 3 4 4 5 5 4 4 5 6 6 6 6 5 5 4 4 3 2 1 1 0 1 1 2 2 2 2 2 3 3
6 6 7 8 8 7 6 6 6 7 8 8 7 7 8 8 8 9 10 11 11 12 12 12 12 12 11 11 10 9 8 8 9 10 9 7 7 7 7 7 6 4 2 1 0 0 0 1 1 1 1 1 0 1 1 1 1 2 3 3 3 3 4 5 6 6 6 6 5 5 4 4 3 2 1 0 0 0 1 1 1 2 1 2 2
6 7 8 9 9 9 7 7 7 8 9 9 9 8 8 9 8 8 8 10 12 12 12 12 12 12 12 12 11 10 9 8 8 10 11 11 10 9 8 8 7 6 4 3 1 1 1 0 1 1 1 1 1 1 1 1 1 1 2 2 2 3 3 3 4 4 4 5 5 5 4 4 3 2 2 1 1 1 1 0 0 0 0 1 1
7 9 9 9 9 10 9 9 8 9 10 10 10 9 10 10 9 9 8 9 11 11 12 12 12 12 12 12 12 11 10 9 8 8 9 11 11 11 10 9 9 8 7 5 4 3 2 1 2 2 1 1 1 1 1 1 1 1 2 2 1 1 2 3 2 1 2 3 3 3 3 3 3 2 2 1 1 1 1 1 1 1 1 1 1
6 8 9 9 9 9 9 10 10 10 10 11 11 11 11 11 10 9 9 10 11 11 12 12 12 12 12 12 12 11 10 9 9 8 9 9 11 12 12 11 11 10 10 8 7 6 4 3 3 3 3 2 1 0 1 0 1 0 2 2 2 2 2 3 2 1 1 1 1 1 1 1 1 1 1 1 2 2 2 2 3 3 3 2 2
4 5 6 7 8 8 8 8 9 10 11 12 11 11 12 12 11 11 10 10 11 11 12 12 12 12 12 12 12 11 11 10 9 8 9 9 10 12 12 12 12 11 11 10 10 9 7 5 5 4 4 3 3 2 1 1 2 2 1 2 3 1 1 2 2 2 1 1 1 1 1 1 1 1 0 1 1 2 3 3 3 4 4 4 3
1 3 4 5 6 7 7 7 8 9 10 11 11 12 13 12 12 11 11 11 11 11 11 12 11 11 12 12 12 11 11 11 10 9 9 10 11 11 12 12 12 12 12 12 12 11 10 8 7 6 5 4 4 3 3 3 2 2 3 2 3 2 1 1 2 3 3 1 0 2 2 2 2 2 2 1 0 1 2 3 4 4 4 5 5
1 2 3 3 4 5 5 6 6 7 8 8 9 12 13 13 13 13 13 12 11 10 10 10 11 12 12 11 11 11 11 12 12 11 10 10 11 11 12 13 13 13 13 12 13 13 12 11 10 8 7 6 5 4 3 4 4 3 3 4 5 5 4 2 2 3 4 3 2 2 3 4 4 4 3 3 2 1 0 1 2 3 4 5 5
2 2 3 3 4 4 5 5 6 6 6 6 6 8 10 11 13 13 13 12 10 10 9 10 12 12 12 11 11 11 10 11 11 11 11 11 11 11 12 13 12 11 12 12 14 14 14 14 13 12 10 9 8 7 6 6 5 5 4 4 5 6 6 4 3 3 3 4 4 3 3 3 3 4 4 4 4 3 2 2 1 0 2 3 4
3 3 3 2 2 2 3 3 2 3 3 4 4 4 6 8 10 11 11 10 8 8 8 10 12 12 11 11 12 11 10 10 11 12 12 12 11 11 13 13 12 11 11 13 14 13 14 15 16 15 14 12 10 10 12 11 9 8 7 6 6 7 6 6 5 3 2 3 4 3 2 1 1 1 2 2 3 3 3 2 2 1 1 1 3
2 2 1 0 1 1 2 1 1 1 1 1 1 1 2 3 5 7 8 8 7 7 7 8 9 10 9 9 10 10 9 9 10 12 12 13 13 14 15 14 13 12 12 13 13 12 12 14 15 15 15 14 13 13 13 12 11 10 10 10 9 9 9 9 8 6 6 6 5 4 4 4 4 3 3 1 1 2 2 3 2 2 2 1 1
2 2 1 1 1 1 2 2 2 1 1 1 2 2 2 2 3 3 4 6 7 6 6 6 8 9 9 8 7 7 8 7 6 7 8 10 11 13 15 14 12 12 12 14 14 12 12 13 13 14 15 14 14 14 11 10 12 12 13 13 12 12 12 11 10 9 9 10 11 10 8 7 7 7 7 6 4 3 3 3 3 2 2 2 1
2 1 0 1 1 1 3 3 2 1 1 1 2 2 2 2 2 3 3 3 3 5 6 7 8 9 10 10 7 5 6 6 4 4 5 6 7 9 11 12 10 10 11 11 11 11 11 12 12 13 13 13 14 13 10 11 13 12 13 14 13 14 15 14 13 13 11 12 14 14 13 13 11 10 10 9 8 7 6 5 5 4 4 3 2
1 0 1 1 1 2 4 3 2 1 1 1 0 1 2 3 3 3 4 5 4 1 3 6 8 9 10 10 9 5 5 5 5 4 4 4 5 6 8 9 9 9 9 8 9 9 10 10 12 12 9 9 12 12 11 13 12 12 14 15 14 15 16 17 16 14 13 13 15 16 17 17 15 14 14 13 12 11 9 8 7 7 6 4 4
1 2 2 1 2 3 4 4 3 2 1 0 1 2 4 4 3 2 2 4 5 5 3 0 4 6 8 9 8 7 7 7 6 5 4 4 5 5 7 8 9 10 9 8 9 9 9 10 12 13 10 9 10 11 12 12 12 12 11 11 12 12 12 13 12 12 13 14 15 16 17 17 16 17 17 17 17 15 13 12 10 10 9 7 6
3 3 2 1 3 4 4 5 5 5 4 3 2 1 0 0 1 1 1 2 3 5 5 4 3 1 2 3 3 4 6 5 4 5 5 5 4 5 5 5 7 9 9 9 8 7 8 8 8 9 9 9 9 10 12 11 12 12 9 9 11 10 9 7 7 8 11 12 11 10 12 14 16 19 19 18 19 18 17 15 13 12 13 11 10
3 3 3 3 4 4 5 6 7 8 8 9 8 7 6 5 4 3 3 3 2 2 3 3 4 5 4 4 3 3 4 5 3 3 3 5 6 6 6 4 5 5 5 6 5 5 5 5 4 5 6 7 7 8 9 9 11 13 12 12 11 10 8 6 6 8 10 9 7 5 6 8 11 15 18 19 19 18 17 16 16 15 14 14 13
3 4 5 4 4 4 4 5 6 8 9 9 10 10 10 9 8 7 6 4 3 2 1 1 2 3 4 4 4 4 5 5 4 4 4 4 6 9 9 7 6 6 5 4 4 3 2 2 2 3 4 6 7 7 8 7 8 10 12 12 11 10 8 6 7 8 8 7 5 4 6 7 7 8 12 16 17 17 16 16 18 16 15 16 15
4 5 5 5 4 4 4 5 6 7 7 7 8 8 9 9 9 8 7 6 6 6 6 6 5 4 3 3 2 2 4 5 5 5 6 6 6 8 10 8 8 9 9 7 5 4 3 2 2 3 3 4 4 5 5 6 6 7 9 10 9 10 9 7 7 6 6 6 6 7 7 8 8 7 7 10 12 13 14 16 18 17 17 19 18
5 5 5 4 4 4 4 5 5 6 6 6 6 6 7 7 8 8 8 8 8 8 8 8 8 6 5 4 4 3 4 4 4 3 4 5 5 7 8 7 8 11 10 8 8 7 7 6 5 4 4 4 4 4 4 4 5 5 7 8 8 8 8 8 7 6 6 6 6 6 7 7 8 8 7 7 8 9 11 14 16 17 18 20 20
6 6 5 4 3 3 3 4 4 4 4 5 5 5 5 5 6 6 6 7 8 8 8 8 7 7 7 6 5 5 4 4 3 3 3 5 6 7 8 9 10 11 11 10 9 8 8 7 6 4 4 4 4 3 3 4 4 5 6 7 8 8 8 8 8 8 8 7 6 7 7 7 9 9 9 10 10 10 11 12 13 15 17 17 18
6 6 5 4 3 3 2 2 2 3 3 4 4 4 5 5 5 5 5 6 6 7 7 7 7 7 7 7 7 6 6 5 5 4 4 5 7 8 9 11 11 11 11 10 9 8 9 7 5 4 3 3 3 2 1 2 3 4 5 6 7 8 9 9 9 9 8 8 8 9 9 9 10 12 14 14 15 15 15 15 15 16 17 17 17
5 5 5 4 4 3 3 2 2 2 3 3 3 4 5 6 6 6 6 6 6 6 6 7 7 7 7 7 7 7 7 7 7 6 5 4 4 6 8 10 11 11 11 10 8 8 7 5 4 4 3 2 2 1 0 1 2 3 4 6 7 8 9 10 11 11 11 11 12 13 13 13 14 15 17 18 19 18 19 19 19 19 19 19 19
4 4 4 4 4 3 3 2 2 2 2 2 3 3 4 5 6 7 7 7 7 7 7 7 7 8 7 7 7 8 8 8 8 8 7 6 5 4 4 6 9 10 11 11 9 8 6 4 3 3 3 2 1 1 1 2 3 5 5 7 8 9 11 12 13 13 14 15 16 16 17 17 18 18 19 19 19 19 18 18 19 19 19 19 20
5 4 3 3 3 2 2 2 1 1 1 1 2 2 3 4 5 6 7 7 7 7 8 8 7 7 8 7 7 7 8 9 9 9 8 8 7 6 5 4 5 8 10 10 9 7 5 4 3 2 2 2 2 2 2 4 5 6 8 9 10 12 13 14 15 16 17 18 18 19 18 18 18 18 17 17 17 17 17 17 17 17 17 17 17
5 4 3 2 2 1 0 0 0 1 1 1 2 2 2 2 2 3 4 5 5 6 6 7 7 7 7 7 6 6 7 7 8 8 8 8 8 8 8 7 6 7 9 9 9 7 5 4 3 3 2 2 3 3 4 5 5 7 8 10 11 13 15 16 17 18 18 19 19 19 18 17 16 16 15 15 16 16 17 17 17 17 17 17 16
6 4 3 2 1 1 1 2 2 2 3 3 3 3 2 2 2 1 2 2 2 3 4 4 4 5 5 5 5 5 5 5 6 7 7 7 7 8 8 8 8 9 8 7 7 7 5 4 3 3 3 3 3 3 4 5 6 6 7 8 9 11 12 14 15 15 16 17 17 17 17 16 16 15 15 16 16 17 17 18 18 18 18 18 17
7 5 4 3 3 3 4 4 5 5 5 5 5 5 4 4 4 3 3 2 2 1 1 1 2 2 2 3 3 3 3 4 4 4 5 5 5 5 5 5 6 7 7 6 6 5 4 4 3 4 5 5 5 5 4 4 5 6 7 8 8 9 10 11 12 13 14 14 15 16 16 16 16 16 16 16 17 17 18 18 18 18 18 18 18
10 9 8 8 7 7 7 6 6 6 7 7 7 7 6 5 5 4 4 3 3 3 3 2 2 1 1 0 0 1 1 1 1 2 3 3 2 2 2 2 2 2 3 3 3 3 4 4 5 6 7 7 8 8 8 8 8 8 9 9 9 9 10 11 12 12 13 13 14 15 15 16 16 17 17 17 17 17 17 18 18 18 18 18 17
13 13 13 11 10 10 9 8 8 7 8 9 9 7 6 6 6 6 5 4 3 3 3 4 4 4 3 2 2 2 2 2 1 2 2 2 2 2 2 2 3 3 3 3 3 4 6 7 7 9 10 10 11 11 11 11 11 11 12 11 11 11 11 11 12 13 13 14 15 15 16 16 17 18 18 18 19 19 19 19 19 19 19 19 18
15 16 16 14 13 14 13 13 13 12 11 11 11 10 9 9 9 8 8 8 7 6 5 5 5 5 5 5 4 4 4 3 3 3 3 3 4 4 4 5 5 5 5 6 7 9 10 11 12 12 13 14 14 14 14 14 14 14 14 14 13 13 13 13 13 14 14 15 16 17 17 18 18 19 20 21 21 21 22 22 22 22 22 22 22
16 16 16 15 15 16 16 16 16 16 15 15 16 16 14 12 10 9 10 12 12 11 10 9 8 8 7 6 6 6 5 5 5 4 4 4 5 6 7 7 6 7 9 11 13 14 15 15 15 15 16 16 16 17 17 16 16 16 15 15 15 15 14 14 14 15 16 16 17 17 18 18 19 20 21 22 23 23 24 24 25 25 26 26 27
19 19 19 18 17 18 18 18 17 18 19 19 19 19 18 16 14 12 10 11 13 14 14 14 13 12 11 10 9 8 7 6 6 6 6 6 7 8 10 10 10 10 12 15 16 16 15 15 15 17 17 17 17 17 18 18 19 19 18 17 16 16 16 16 16 17 18 18 18 19 19 20 20 21 21 22 23 24 24 25 25 26 26 27 28
20 20 21 21 21 21 21 19 19 21 22 21 20 18 17 17 16 14 12 12 13 14 14 15 14 12 11 11 11 11 10 8 7 8 8 8 8 9 10 11 12 12 13 15 16 15 14 15 16 17 18 18 19 19 20 20 20 20 21 21 20 19 18 18 19 20 20 21 21 21 21 22 21 21 21 22 23 24 25 25 26 26 26 26 27
20 20 20 21 22 22 21 20 20 21 23 22 19 17 16 16 16 15 14 14 15 15 15 15 14 13 12 14 14 14 14 13 11 11 11 11 10 10 9 10 12 13 13 15 14 11 11 14 15 16 17 19 21 22 23 23 22 22 22 23 23 23 22 21 22 23 24 24 24 24 23 23 23 23 23 23 23 24 25 25 26 26 26 27 28
22 21 20 19 20 21 20 19 19 20 21 20 17 15 15 16 16 16 15 16 16 16 15 16 16 17 17 17 16 16 16 16 15 15 14 14 13 13 12 12 13 13 14 14 13 11 12 13 14 15 16 18 22 24 24 24 24 24 24 24 25 26 26 24 24 24 26 27 27 27 26 26 26 25 25 25 25 25 26 25 25 26 26 27 29
13 13 13 13 13 13 13 13 14 14 13 11 11 11 13 14 15 15 16 17 17 17 17 18 18 18 18 17 16 16 16 17 18 19 18 17 17 16 16 16 17 16 14 14 14 13 14 15 16 17 18 20 23 25 25 25 25 25 26 26 27 28 29 28 27 25 26 29 30 30 28 28 30 29 28 28 27 27 27 26 26 26 26 27 28
4 4 5 5 4 4 5 6 6 6 5 5 6 7 8 9 11 12 14 15 15 16 17 17 17 17 17 16 16 16 16 17 19 20 20 20 20 19 19 20 20 19 18 17 17 16 16 17 18 19 20 22 24 25 25 25 25 26 27 28 29 30 31 32 32 29 28 30 33 33 30 28 31 32 31 30 30 29 28 26 26 26 26 27 27
3 3 2 3 3 3 4 5 5 6 6 7 7 8 8 9 9 10 10 10 10 11 12 13 13 14 14 14 14 15 15 16 18 19 20 21 21 22 23 23 23 22 22 21 20 18 17 17 18 20 21 22 24 25 25 26 26 28 29 30 31 32 33 34 35 33 30 31 35 36 32 29 30 32 31 30 31 31 30 28 27 26 26 26 26
2 2 2 2 3 5 6 6 7 8 8 9 10 10 10 10 11 10 10 9 9 9 9 10 11 12 12 13 13 13 14 15 17 18 19 19 21 24 26 25 24 23 23 22 21 19 18 18 19 20 21 22 24 25 26 27 28 29 31 32 32 34 35 35 36 35 32 32 35 37 35 29 29 32 32 29 31 32 31 30 29 27 25 25 25
3 4 4 5 5 6 7 7 8 9 11 11 12 13 13 13 13 13 12 11 11 10 10 10 11 11 12 13 13 13 14 15 15 17 17 17 19 23 25 25 24 24 23 23 22 21 20 20 21 21 22 23 25 27 28 28 30 31 33 34 35 36 37 37 37 36 33 32 34 37 37 31 29 33 33 30 30 31 31 30 30 27 26 25 24
5 5 5 5 5 5 6 6 8 9 10 11 12 13 13 14 14 14 14 14 14 14 13 12 12 12 12 12 13 13 14 14 14 15 15 15 18 21 24 25 24 24 23 23 22 21 21 22 22 22 24 25 27 28 30 31 32 33 34 35 35 36 38 38 37 36 34 32 31 34 37 35 31 32 33 30 29 30 29 30 30 28 26 24 23
6 6 5 5 4 4 5 6 7 9 10 11 12 12 13 13 14 14 15 15 16 16 15 14 13 13 12 13 13 13 13 13 13 13 13 13 17 20 22 23 24 24 24 22 21 21 21 22 23 24 26 28 29 30 32 33 34 35 35 35 35 35 36 37 37 36 34 33 31 32 36 36 32 31 32 31 30 30 29 28 29 28 26 23 22
6 5 5 5 6 7 8 8 9 10 11 12 13 13 14 14 14 14 13 14 15 15 15 15 14 13 13 13 12 11 11 11 11 11 11 13 16 20 21 22 23 23 23 21 21 22 22 23 25 26 28 30 31 33 34 35 35 35 35 35 34 34 35 36 37 37 36 34 32 31 33 34 31 32 34 34 33 32 30 28 26 25 22 20 20
6 6 7 8 9 10 10 10 12 12 13 13 13 14 14 15 15 15 14 13 13 13 14 14 14 13 12 12 11 10 9 9 10 10 11 14 17 20 21 22 22 21 21 21 22 22 24 25 27 28 30 31 33 34 34 34 33 33 33 34 33 34 35 36 36 37 37 35 30 28 30 33 32 32 34 35 36 35 31 27 24 21 20 19 20
8 8 9 9 10 11 11 12 14 14 15 15 15 14 14 15 15 15 15 14 13 12 13 13 12 12 11 11 11 10 10 10 10 11 13 16 18 20 21 21 20 20 20 21 22 23 25 27 28 30 31 32 34 34 33 32 31 31 32 32 32 33 34 34 33 33 34 33 29 27 31 34 33 33 32 33 34 34 31 28 26 25 23 22 23
Wind_Direction
242 244 251 259 262 256 250 245 237 236 236 236 226 207 200 211 228 210 196 195 194 191 194 201 203 199 197 199 196 203 218 226 223 221 228 228 212 183 286 319 320 336 339 335 329 306 271 252 255 252 233 231 240 248 258 265 263 254 246 235 222 216 210 195 173 144 113 95 88 86 84 85 84 83 82 78 75 72 70 68 67 66 64 61 58
243 242 245 256 262 252 248 251 246 241 235 232 225 211 202 205 215 208 198 198 202 202 204 208 208 204 198 193 190 195 208 217 216 214 225 233 228 211 233 275 280 326 347 357 350 337 313 281 266 261 245 236 241 248 256 269 276 266 255 246 237 227 219 214 201 190 178 160 136 112 103 97 92 90 89 86 79 72 69 65 63 61 59 58 56
239 239 244 258 263 253 253 258 251 244 237 234 231 224 217 218 224 215 204 202 206 210 215 220 218 214 209 202 199 198 202 207 211 211 216 219 205 190 212 238 240 283 342 4 16 15 351 322 291 279 269 258 252 254 261 270 282 280 269 253 246 243 231 225 216 207 203 194 190 174 151 130 105 92 87 85 80 72 69 62 57 56 53 53 52
233 237 253 265 256 250 261 263 255 246 241 242 240 237 234 231 232 223 213 209 213 217 222 227 230 228 223 217 211 207 206 207 209 204 205 207 189 178 193 206 211 231 298 348 33 49 22 351 314 288 289 289 275 270 272 275 283 283 278 261 236 242 236 229 224 216 212 208 205 202 198 188 158 114 91 78 74 70 69 63 55 53 48 46 46
236 239 250 257 243 243 259 258 253 249 244 245 243 243 241 235 233 227 221 221 224 227 231 234 235 236 231 228 223 217 215 216 217 207 201 205 198 188 191 198 196 193 228 308 15 63 64 42 36 291 288 296 290 284 279 277 280 280 280 270 234 228 228 225 226 224 221 217 215 216 221 223 223 220 113 70 62 61 62 63 59 56 49 47 43
235 232 234 235 230 237 254 254 257 259 254 252 245 245 243 236 232 227 225 224 226 231 237 241 240 240 236 235 237 234 229 227 232 234 224 217 214 204 199 205 198 183 177 283 312 37 73 80 96 107 182 285 303 300 288 280 277 276 282 275 247 229 222 223 229 230 231 229 227 228 232 237 242 248 249 328 36 49 52 55 57 59 56 53 44
227 226 226 223 220 227 241 248 258 261 258 255 246 245 244 234 230 231 230 225 224 229 235 241 242 244 243 243 246 245 241 234 234 240 242 239 229 220 216 214 209 201 199 206 296 334 41 87 109 125 134 119 18 332 318 304 292 279 287 282 266 252 230 222 228 235 242 241 243 246 247 249 250 252 250 266 334 358 17 33 48 57 58 50 49
223 226 225 218 217 223 226 231 244 254 256 255 248 243 242 237 235 239 240 233 231 233 235 240 243 245 248 250 251 251 249 241 235 237 243 248 241 234 229 219 219 224 225 232 241 267 325 306 267 197 157 134 88 38 355 320 323 319 309 290 265 273 273 252 233 234 250 252 256 263 267 267 262 259 251 244 247 249 260 258 276 357 27 21 50
214 218 220 216 216 219 223 227 233 243 250 255 254 251 250 247 243 244 246 240 238 237 235 238 244 246 245 249 254 256 256 250 243 239 243 250 245 240 239 230 229 234 235 239 239 245 267 271 273 273 255 191 127 73 37 4 327 359 358 343 323 304 315 311 275 238 262 263 263 269 274 276 268 261 245 238 239 236 234 224 223 226 229 234 228
219 218 220 218 217 220 225 229 234 239 245 252 257 260 260 256 250 248 247 243 242 240 236 235 241 242 240 245 251 257 262 259 251 245 244 248 244 240 243 243 242 240 238 236 235 239 245 247 254 269 280 275 244 36 41 57 208 110 45 35 25 14 358 339 327 335 287 245 267 278 261 275 277 269 254 247 244 237 228 218 214 216 220 221 229
226 222 222 220 220 225 230 234 239 242 247 254 259 261 261 260 258 253 249 245 243 240 235 232 235 238 239 242 245 252 261 265 262 253 246 246 245 243 244 247 250 248 243 241 240 237 235 238 242 252 266 276 283 304 345 324 226 231 309 30 34 28 14 360 351 347 316 213 123 61 60 50 40 22 351 285 251 241 229 219 214 212 213 215 218
205 207 211 215 219 225 230 233 236 240 247 252 255 256 255 254 256 255 251 244 243 244 238 232 234 237 241 243 243 247 252 260 265 261 251 249 250 250 248 247 248 249 246 245 244 238 231 229 230 234 242 252 270 294 317 326 294 241 244 285 334 344 338 352 360 347 327 287 279 49 50 54 53 52 50 32 330 247 230 219 216 216 214 213 215
184 182 183 193 206 216 222 228 233 239 247 252 254 255 254 252 251 253 253 249 248 251 245 239 238 235 238 242 244 245 248 253 258 255 249 247 249 250 251 247 243 245 248 244 243 241 236 229 226 226 229 234 244 263 287 304 309 296 260 259 283 307 320 328 344 345 342 339 341 27 44 47 51 61 67 62 58 54 54 190 208 221 223 221 219
200 190 185 194 210 225 234 238 240 244 251 259 263 264 262 259 255 255 257 256 253 251 245 241 239 233 234 240 245 249 251 250 247 244 241 240 244 248 251 248 240 242 250 247 244 245 244 239 233 226 222 227 235 250 260 263 267 267 265 257 259 277 299 310 316 332 353 2 358 11 39 43 44 52 63 64 62 59 60 72 79 230 245 244 237
210 209 204 214 240 257 259 252 246 245 253 261 268 275 274 268 264 260 261 258 248 242 238 236 239 236 233 239 247 252 253 248 241 239 239 242 246 246 248 248 244 247 254 253 251 252 252 250 245 239 235 234 241 259 259 252 249 245 245 245 242 251 269 280 282 286 303 333 340 334 335 348 19 29 43 51 48 49 50 48 49 37 359 287 258
165 177 198 282 348 360 355 351 18 51 34 334 334 337 317 296 285 276 272 264 250 239 233 233 241 237 230 233 240 245 251 250 242 237 238 243 248 246 243 244 244 246 247 248 252 254 257 259 256 251 251 250 256 268 262 252 251 250 249 249 247 246 250 259 262 258 255 263 272 267 262 270 273 279 282 296 342 11 18 17 20 16 13 5 323
100 115 74 22 28 22 3 347 348 15 63 50 55 61 52 28 348 324 303 281 264 250 235 229 236 236 232 229 223 228 240 240 232 232 236 241 247 246 242 240 239 240 244 250 256 256 257 262 259 252 252 255 263 272 274 264 257 256 257 258 257 254 252 256 257 252 246 251 259 258 251 253 261 272 278 281 285 288 301 319 330 340 348 351 353
91 101 77 355 346 340 346 343 342 334 188 159 67 63 56 42 14 4 8 347 284 255 238 224 225 229 234 234 226 220 224 219 212 222 231 238 243 240 237 236 233 232 236 247 255 254 253 257 254 252 248 244 254 264 268 265 262 264 266 267 267 263 258 257 256 255 248 247 256 263 262 256 257 267 274 277 279 278 279 289 295 298 307 312 310
117 84 309 295 309 333 345 353 5 13 175 189 210 324 319 320 326 342 18 32 28 340 245 226 221 222 227 231 232 229 228 226 220 218 216 219 228 227 227 225 219 220 218 221 234 239 243 247 251 260 257 239 247 255 257 260 264 269 273 274 276 274 269 269 271 267 259 254 255 260 265 265 264 266 266 267 270 272 271 275 279 280 282 288 290
328 323 321 318 344 356 8 21 34 37 35 218 250 268 288 298 306 321 20 38 43 48 46 266 225 229 231 231 235 245 253 243 220 208 205 206 212 208 213 213 208 214 214 214 225 230 238 245 250 261 266 256 253 254 256 257 257 266 276 278 279 278 275 277 282 276 265 263 262 258 259 262 263 265 267 269 269 269 267 262 263 271 274 274 281
342 339 356 30 18 22 42 54 63 71 75 81 86 107 212 257 133 147 121 74 62 62 56 49 53 53 243 240 254 274 282 280 242 218 205 192 193 180 188 202 197 206 218 224 228 228 239 246 245 255 265 264 261 258 262 263 265 276 286 280 275 273 271 274 280 274 266 269 273 267 263 263 262 264 268 270 269 269 272 273 273 275 276 273 272
12 33 67 66 48 49 64 70 75 77 78 79 80 82 87 96 106 116 130 135 128 93 55 36 50 61 65 66 42 19 11 9 341 266 204 168 163 155 158 167 166 173 198 215 213 212 233 251 252 262 274 273 271 273 279 279 274 275 275 270 267 262 264 275 278 276 275 275 273 273 288 291 277 264 260 263 266 268 274 282 282 277 278 280 278
52 75 85 81 70 63 67 72 73 72 72 73 74 76 79 86 93 95 103 117 126 121 94 72 89 78 73 74 63 50 52 55 46 25 48 113 146 154 153 145 140 134 124 139 159 179 223 275 285 287 294 291 295 300 303 296 273 260 257 257 256 253 256 270 281 286 294 299 301 311 327 328 313 282 260 257 261 265 271 278 279 277 280 283 286
89 95 95 90 78 63 59 60 59 62 65 65 68 72 75 80 85 86 86 86 85 89 92 96 101 102 103 98 85 78 81 90 87 67 66 83 115 145 150 141 132 124 117 124 125 114 97 66 34 3 354 346 341 331 316 301 275 253 249 251 256 262 267 274 284 299 312 316 323 326 326 322 320 318 292 268 261 263 267 270 272 274 271 266 267
107 109 105 100 87 69 59 49 47 52 52 53 58 65 70 73 75 77 76 74 73 76 82 87 89 92 98 99 97 100 107 112 113 110 109 115 128 137 141 141 134 125 122 123 117 104 94 85 74 57 37 35 36 21 352 318 293 272 262 267 273 277 276 274 278 288 298 305 314 316 319 319 319 323 317 299 282 269 265 263 265 267 265 262 262
109 111 109 108 101 87 69 49 44 46 42 40 41 51 64 69 69 67 67 68 69 70 72 75 77 79 81 84 88 90 96 104 107 117 133 152 163 155 146 143 136 131 129 124 117 107 97 92 90 87 75 60 52 35 3 332 313 299 288 284 283 281 279 278 280 282 285 293 303 308 311 314 315 314 309 300 292 285 278 272 269 268 267 267 268
113 111 106 103 99 91 82 65 56 57 53 44 37 44 53 61 67 64 62 65 65 67 69 68 70 70 68 70 74 78 81 82 83 90 108 135 153 159 161 157 146 138 133 130 127 113 99 96 97 94 91 79 68 58 7 314 305 302 296 289 282 280 281 283 287 288 286 290 295 297 299 299 300 300 298 293 289 286 283 281 278 275 274 273 272
125 119 113 108 101 94 92 89 77 69 65 52 45 52 53 53 60 63 67 69 64 63 65 68 71 69 65 66 69 74 75 75 74 74 79 99 127 147 167 174 166 149 134 129 128 119 108 104 100 91 88 92 96 99 104 287 285 282 281 279 278 281 284 287 290 291 291 291 291 291 290 289 288 288 288 287 285 282 282 281 279 277 275 274 273
155 149 138 125 116 110 107 107 98 79 60 43 38 54 64 62 61 63 65 64 61 62 65 68 71 70 67 67 72 75 74 73 73 73 72 72 78 93 141 175 182 172 149 132 123 120 121 118 103 86 77 74 92 130 215 245 264 270 270 273 276 278 281 285 286 287 288 289 290 291 291 289 288 287 285 282 281 280 280 280 280 280 279 277 277
187 177 164 152 140 132 125 118 111 88 42 7 8 33 62 71 71 72 73 70 63 62 65 69 72 72 69 67 69 72 72 71 69 69 69 70 74 77 85 116 166 184 175 152 130 118 118 119 110 86 66 35 9 337 291 272 270 273 274 276 278 280 281 283 284 286 287 288 290 291 292 293 292 290 288 285 283 282 281 280 281 282 282 283 283
196 185 179 176 174 181 206 308 350 359 327 312 320 342 9 37 57 65 75 82 80 73 73 74 75 77 74 71 69 68 70 71 67 64 62 66 75 82 86 90 111 150 174 171 146 123 110 103 89 59 36 28 15 349 325 309 297 291 290 287 286 286 286 287 288 288 288 289 289 289 290 291 291 290 289 289 287 285 284 283 283 283 283 283 283
202 197 194 195 205 246 299 314 325 330 327 315 308 312 319 327 334 339 12 55 79 87 90 86 81 83 82 81 76 68 62 62 64 63 58 60 68 75 83 88 97 115 137 155 143 120 96 74 58 31 15 14 7 346 333 330 322 315 310 305 303 301 299 298 296 295 294 293 292 292 292 292 291 290 289 288 288 288 287 286 286 286 286 285 283
218 216 222 236 257 275 284 295 314 322 325 324 318 317 317 314 312 303 302 316 325 342 40 56 62 68 73 82 83 74 60 48 49 56 55 57 59 59 68 77 84 97 107 117 118 101 65 36 14 356 350 345 338 329 322 323 323 321 321 319 316 313 311 309 306 304 303 301 298 297 296 295 293 291 290 289 288 288 289 289 289 290 288 286 283
225 228 233 238 250 263 267 273 286 295 299 300 299 304 307 308 312 310 300 297 303 313 321 320 313 314 328 323 182 147 115 61 31 34 40 41 43 43 36 35 45 58 65 76 86 57 12 356 343 335 330 324 322 320 315 313 315 318 322 322 319 317 316 314 313 310 307 305 303 300 298 296 295 293 292 291 290 289 289 289 290 290 290 289 285
228 235 241 241 244 253 261 268 269 266 273 282 284 284 284 289 299 304 300 294 296 312 322 318 311 307 304 295 281 273 265 260 274 308 336 340 329 319 310 316 329 334 335 338 343 342 340 338 331 325 321 317 316 317 316 317 317 318 318 318 319 320 319 318 316 313 311 308 305 303 300 298 296 295 295 294 293 292 291 290 289 288 288 288 288
239 248 252 250 247 249 253 259 263 269 276 282 285 280 272 275 284 289 292 293 295 301 307 308 307 306 304 301 300 295 289 290 292 296 299 296 293 296 303 314 319 320 322 325 327 328 330 330 327 323 323 321 319 317 316 315 314 314 314 314 316 317 317 318 316 314 312 310 308 306 304 301 299 297 295 294 293 292 290 289 288 287 286 286 287
248 255 256 254 252 252 254 256 259 266 273 275 279 278 270 266 269 274 284 291 295 296 296 295 294 293 291 290 293 293 292 295 301 304 300 290 293 302 309 312 308 310 316 320 322 321 317 314 314 317 319 320 319 316 313 311 309 308 309 309 311 311 310 311 311 309 308 307 306 305 303 302 300 298 296 294 292 291 289 287 286 285 285 285 285
250 252 252 251 252 254 260 262 264 270 273 272 275 276 269 262 262 264 271 281 287 288 288 286 285 282 281 280 280 280 281 284 295 307 306 297 303 313 316 312 303 305 313 317 321 326 323 317 316 317 317 317 318 317 314 313 311 309 307 305 305 305 305 304 303 305 306 306 306 305 305 303 301 299 297 296 294 292 290 289 287 286 285 284 285
251 254 256 255 254 256 259 261 266 274 276 274 275 276 269 263 263 267 271 274 276 277 279 281 278 274 277 280 277 272 270 270 277 287 288 284 287 296 303 304 300 302 310 314 319 328 332 332 332 329 325 323 323 323 320 317 315 312 309 306 302 300 301 304 305 305 306 306 306 305 305 304 302 301 298 296 295 293 292 291 290 289 288 286 284
255 258 261 259 257 259 260 260 266 271 272 272 273 273 269 264 263 267 272 274 271 268 269 274 271 267 273 279 275 266 262 261 257 259 265 266 263 264 271 284 289 291 298 303 307 313 316 323 331 332 331 329 327 326 322 317 312 309 309 310 309 306 305 307 309 308 306 305 304 302 301 300 299 299 298 296 294 292 291 290 290 289 288 287 284
262 261 262 259 257 259 261 264 268 270 269 269 269 268 269 269 269 270 273 274 271 265 264 266 265 266 273 276 271 262 258 256 253 253 258 260 258 257 259 266 270 273 278 283 287 289 296 309 321 325 327 327 326 326 323 318 313 310 309 311 312 311 309 307 308 308 307 305 302 299 299 300 298 297 296 295 294 292 290 288 288 287 285 284 282
260 255 254 254 254 256 258 261 265 267 268 268 268 272 277 279 279 278 274 271 268 265 263 263 264 267 271 270 265 260 257 253 250 250 253 257 260 258 258 262 265 265 268 273 278 284 293 304 313 316 318 321 322 324 325 322 317 314 312 312 312 312 311 309 307 307 309 309 304 299 298 301 300 298 296 295 294 292 290 289 288 287 284 282 281
224 227 235 244 249 250 248 252 260 267 274 278 281 286 289 289 286 280 276 272 270 269 267 267 269 271 271 269 266 262 257 251 249 249 249 251 257 259 258 261 262 262 265 270 275 282 291 298 305 308 311 315 317 319 321 320 316 314 314 314 314 314 314 314 311 310 312 311 306 302 299 301 301 299 296 297 296 294 293 291 289 287 284 282 281
195 203 215 235 249 253 255 261 270 275 278 280 283 286 287 286 283 280 279 278 276 275 276 277 278 279 279 277 274 269 262 254 253 255 252 249 252 255 256 257 259 261 263 266 271 278 286 293 300 304 306 310 313 314 316 315 314 313 313 313 314 314 314 315 313 313 314 312 308 304 302 302 302 298 296 297 298 297 297 296 293 290 287 285 283
177 192 215 238 248 254 259 263 266 267 270 273 276 280 281 282 281 282 282 282 283 285 286 286 287 288 289 288 283 278 271 262 256 257 257 253 250 251 252 255 259 261 262 265 271 280 287 293 298 300 302 307 311 312 313 313 311 311 311 311 312 313 313 313 311 312 314 312 310 307 304 305 304 300 298 298 298 298 299 298 297 295 292 289 286
242 251 253 255 255 256 260 263 267 269 272 274 275 276 277 278 278 279 280 280 283 288 291 294 297 298 299 297 292 286 279 271 262 256 255 256 253 251 251 254 257 259 262 268 276 283 290 296 300 301 304 308 311 312 312 312 311 310 310 310 311 312 312 311 311 312 313 312 311 308 306 307 306 302 300 300 297 297 298 298 297 297 296 293 289
244 248 248 249 252 257 263 269 275 279 280 282 282 281 281 280 278 276 276 277 279 282 286 291 298 303 305 303 296 288 280 274 266 255 250 254 258 255 253 253 256 259 264 270 277 284 292 299 302 304 307 311 312 312 311 310 309 308 308 309 311 311 309 309 309 310 311 311 310 308 306 308 308 302 300 300 297 295 295 295 296 296 296 294 290
219 224 229 239 255 272 284 290 292 292 293 293 293 295 295 293 290 285 279 276 276 278 280 283 288 297 303 304 299 290 282 276 271 262 253 253 257 257 255 257 259 261 265 271 278 287 296 301 305 308 310 311 311 309 308 307 306 307 308 309 310 310 308 307 307 308 308 308 309 307 305 307 309 306 303 302 300 297 296 295 295 296 296 293 288
222 231 246 266 280 288 293 294 292 292 294 295 296 298 299 299 300 298 292 282 276 275 276 278 282 287 294 299 302 297 287 281 279 276 268 259 256 255 255 256 258 261 267 275 284 292 299 304 306 308 308 307 305 303 303 303 304 306 307 308 309 309 307 306 307 308 308 307 308 308 306 305 308 308 305 305 303 300 298 297 295 295 293 288 280
244 256 269 278 283 286 288 288 288 290 294 298 298 297 298 299 300 301 300 295 286 280 278 279 282 285 288 294 301 305 305 301 293 281 267 257 252 251 253 256 261 267 276 284 292 298 301 303 304 303 302 301 300 300 300 301 303 305 305 305 306 305 304 305 306 307 307 307 309 309 306 303 305 306 305 305 304 301 301 300 295 290 286 281 276
263 269 277 282 284 288 290 293 297 299 302 305 307 305 305 305 304 304 304 302 299 292 287 285 286 288 291 295 300 305 308 307 295 276 262 255 253 254 257 263 270 279 287 292 295 296 296 297 297 297 297 297 297 298 299 300 301 301 301 301 302 302 303 304 305 305 304 304 308 311 305 302 303 305 306 308 306 304 303 301 296 292 288 283 281